DW4219 Weather Reports


Display with metric or nautical units.
time (UTC)temp
F
wind
direction
speed
MPH
gust
MPH
rain 1hr
in
rain 24hr
in
rain mn
in
humidity
%
barometer
mb
20260507204555 76 197 11.0 18.0 0.00 0.00 0.00 18 1015.4
20260507203040 76 183 8.0 14.0 0.00 0.00 0.00 18 1015.6
20260507201540 76 212 5.0 12.0 0.00 0.00 0.00 19 1015.7
20260507200038 75 204 4.0 11.0 0.00 0.00 0.00 18 1016.0
20260507194531 75 216 7.0 11.0 0.00 0.00 0.00 19 1016.3
20260507193029 74 201 8.0 12.0 0.00 0.00 0.00 19 1016.5
20260507191525 74 67 2.0 11.0 0.00 0.00 0.00 19 1017.0
20260507190035 74 45 4.0 11.0 0.00 0.00 0.00 20 1017.4
20260507184527 73 217 4.0 14.0 0.00 0.00 0.00 19 1017.6
20260507183021 73 148 5.0 9.0 0.00 0.00 0.00 20 1017.6
20260507181514 72 219 2.0 8.0 0.00 0.00 0.00 20 1017.9
20260507180013 72 115 4.0 8.0 0.00 0.00 0.00 20 1018.2
20260507174511 71 319 2.0 6.0 0.00 0.00 0.00 20 1018.3
20260507173008 70 232 3.0 6.0 0.00 0.00 0.00 21 1018.6
20260507171506 70 70 3.0 6.0 0.00 0.00 0.00 21 1018.7
20260507170004 70 252 2.0 6.0 0.00 0.00 0.00 21 1019.0
20260507164601 69 307 1.0 3.0 0.00 0.00 0.00 21 1019.1
20260507163059 67 287 1.0 3.0 0.00 0.00 0.00 21 1019.3
20260507161556 65 87 0.0 3.0 0.00 0.00 0.00 23 1019.6
20260507160058 63 84 0.0 2.0 0.00 0.00 0.00 24 1019.9
20260507154547 61 66 1.0 3.0 0.00 0.00 0.00 24 1020.3
20260507153050 59 11 1.0 3.0 0.00 0.00 0.00 25 1020.4
20260507151539 56 290 1.0 4.0 0.00 0.00 0.00 29 1020.5
20260507150034 54 283 1.0 3.0 0.00 0.00 0.00 32 1020.6
20260507144530 51 255 1.0 3.0 0.00 0.00 0.00 33 1020.8
20260507143026 49 259 1.0 2.0 0.00 0.00 0.00 34 1021.0
20260507141522 46 260 0.0 3.0 0.00 0.00 0.00 39 1021.1
20260507140020 43 298 1.0 2.0 0.00 0.00 0.00 40 1021.1
20260507134520 41 267 0.0 1.0 0.00 0.00 0.00 47 1021.1
20260507133018 39 251 0.0 2.0 0.00 0.00 0.00 48 1021.1
20260507131517 36 212 1.0 2.0 0.00 0.00 0.00 53 1021.0
20260507130014 34 222 0.0 1.0 0.00 0.00 0.00 56 1020.9
20260507124517 33 252 0.0 1.0 0.00 0.00 0.00 55 1020.8
20260507123011 33 225 1.0 2.0 0.00 0.00 0.00 55 1020.7
20260507121508 33 243 0.0 2.0 0.00 0.00 0.00 54 1020.5
20260507120007 34 219 0.0 1.0 0.00 0.00 0.00 52 1020.4
20260507114506 34 233 0.0 2.0 0.00 0.00 0.00 52 1020.5
20260507113005 34 265 2.0 5.0 0.00 0.00 0.00 53 1020.5
20260507111502 34 263 1.0 2.0 0.00 0.00 0.00 54 1020.4
20260507104557 35 250 0.0 1.0 0.00 0.00 0.00 52 1020.5
20260507103057 35 224 1.0 3.0 0.00 0.00 0.00 52 1020.5
20260507101555 35 236 0.0 2.0 0.00 0.00 0.00 53 1020.4
20260507100053 35 215 1.0 2.0 0.00 0.00 0.00 54 1020.3
20260507094553 36 212 0.0 2.0 0.00 0.00 0.00 50 1020.1
20260507093048 36 249 1.0 3.0 0.00 0.00 0.00 51 1020.1
20260507091547 36 231 0.0 1.0 0.00 0.00 0.00 51 1020.1
20260507090043 36 217 0.0 1.0 0.00 0.00 0.00 50 1020.0
20260507084541 37 223 0.0 1.0 0.00 0.00 0.00 49 1020.2
20260507083047 37 216 1.0 3.0 0.00 0.00 0.00 48 1020.2
20260507081536 37 219 2.0 3.0 0.00 0.00 0.00 49 1019.9
20260507080032 37 202 0.0 2.0 0.00 0.00 0.00 49 1019.8
20260507074530 38 176 1.0 3.0 0.00 0.00 0.00 47 1019.6
20260507073026 39 159 0.0 1.0 0.00 0.00 0.00 47 1019.7
20260507071523 40 210 0.0 1.0 0.00 0.00 0.00 46 1019.8
20260507070020 41 222 1.0 4.0 0.00 0.00 0.00 42 1019.6
20260507064517 41 195 1.0 5.0 0.00 0.00 0.00 42 1019.5
20260507063018 43 186 1.0 4.0 0.00 0.00 0.00 40 1019.4
20260507061511 43 189 4.0 6.0 0.00 0.00 0.00 40 1019.2
20260507060007 42 191 0.0 2.0 0.00 0.00 0.00 45 1019.1
20260507054508 42 202 0.0 2.0 0.00 0.00 0.00 46 1018.9
20260507053006 42 165 0.0 1.0 0.00 0.00 0.00 48 1018.9
20260507051505 43 172 0.0 0.0 0.00 0.00 0.00 43 1018.9
20260507050004 45 152 0.0 1.0 0.00 0.00 0.00 40 1018.8
20260507044503 46 156 0.0 0.0 0.00 0.00 0.00 40 1018.9
20260507043005 48 174 0.0 1.0 0.00 0.00 0.00 39 1018.8
20260507041502 49 248 0.0 1.0 0.00 0.00 0.00 37 1018.8
20260507040112 50 184 0.0 1.0 0.00 0.00 0.00 36 1018.6
20260507034603 51 111 0.0 1.0 0.00 0.00 0.00 36 1018.3
20260507033057 51 111 0.0 1.0 0.00 0.00 0.00 33 1018.0
20260507031557 52 309 1.0 2.0 0.00 0.00 0.00 35 1017.8
20260507030054 56 51 0.0 6.0 0.00 0.00 0.00 27 1017.5
20260507024548 58 46 6.0 10.0 0.00 0.00 0.00 26 1017.1
20260507023046 59 59 7.0 13.0 0.00 0.00 0.00 25 1016.9
20260507021547 61 59 8.0 12.0 0.00 0.00 0.00 25 1016.6
20260507020053 63 41 9.0 16.0 0.00 0.00 0.00 23 1016.6
20260507014552 64 68 10.0 16.0 0.00 0.00 0.00 22 1016.6
20260507013043 65 53 9.0 17.0 0.00 0.00 0.00 21 1016.5
20260507011553 66 29 8.0 17.0 0.00 0.00 0.00 23 1016.3
20260507010041 66 38 8.0 18.0 0.00 0.00 0.00 23 1016.2
20260507004541 67 39 7.0 18.0 0.00 0.00 0.00 23 1016.1
20260507003039 67 70 8.0 18.0 0.00 0.00 0.00 23 1016.1
20260507001549 67 46 8.0 17.0 0.00 0.00 0.00 23 1016.0
20260507000039 67 57 9.0 19.0 0.00 0.00 0.00 22 1015.7
20260506234543 67 51 10.0 20.0 0.00 0.00 0.00 23 1015.8
20260506233034 68 24 8.0 17.0 0.00 0.00 0.00 23 1015.7
20260506231536 67 18 7.0 13.0 0.00 0.00 0.00 25 1015.7
20260506230031 67 1 11.0 20.0 0.00 0.00 0.00 25 1015.9
20260506224531 67 57 8.0 18.0 0.00 0.00 0.00 24 1015.8
20260506223027 66 84 5.0 17.0 0.00 0.00 0.00 24 1016.0
20260506221526 66 360 11.0 18.0 0.00 0.00 0.00 23 1015.9
20260506220024 67 68 10.0 17.0 0.00 0.00 0.00 25 1016.0
20260506214523 66 44 12.0 17.0 0.00 0.00 0.00 27 1016.2
20260506213023 66 24 12.0 19.0 0.00 0.00 0.00 29 1016.2
20260506211521 66 1 10.0 19.0 0.00 0.00 0.00 30 1016.2
20260506210023 66 56 12.0 18.0 0.00 0.00 0.00 32 1016.1